Weather reports worldwide

Advertisment
Lille, France (7015): temperature & dewpoint: 07.12.2018 10:00:00 - 13.12.2018 10:00:00 (CET)Lille, France (7015): temperature 5cm: 07.12.2018 10:00:00 - 13.12.2018 10:00:00 (CET)Lille, France (7015): temperature -20cm & temperature -100cm: 07.12.2018 10:00:00 - 13.12.2018 10:00:00 (CET)Lille, France (7015): wind speed & gusts: 07.12.2018 10:00:00 - 13.12.2018 10:00:00 (CET)Lille, France (7015): wind direction: 07.12.2018 10:00:00 - 13.12.2018 10:00:00 (CET)Lille, France (7015): reduced air pressure: 07.12.2018 10:00:00 - 13.12.2018 10:00:00 (CET)Lille, France (7015): visibility: 07.12.2018 10:00:00 - 13.12.2018 10:00:00 (CET)Lille, France (7015): precipitation: 07.12.2018 10:00:00 - 13.12.2018 10:00:00 (CET)
Date & Time tt [°C] td [°C] tt 5cm [°C] tt -20cm [°C] tt -100cm [°C] ff [km/h] ff [kn] fx [km/h] fx [kn] dd ppp [hPa] vv [km] rr [mm]
13.12.2018 10:00:00 0,5 -1,6 -0,9 3,7 10,2 14 7 21 11 ENE 1018,7 13 0,0
13.12.2018 09:00:00 -0,7 -2,0 -1,7 3,8 10,2 7 4 13 7 NE 1019,0 14 0,0
13.12.2018 08:00:00 -0,4 -2,1 -1,2 3,8 10,2 11 6 21 12 ENE 1018,7 18 0,0
13.12.2018 07:00:00 -0,1 -2,0 -0,6 3,9 10,2 15 8 25 14 ENE 1018,6 13 0,0
13.12.2018 06:00:00 0,1 -1,7 -0,7 3,9 10,3 18 10 24 13 ENE 1019,0 11 0,0
13.12.2018 05:00:00 -0,1 -1,5 -0,8 4,0 10,3 14 8 28 15 ENE 1019,6 9 0,0
13.12.2018 04:00:00 -0,2 -1,6 -1,0 4,1 10,3 16 9 24 13 E 1020,0 9 0,0
13.12.2018 03:00:00 0,0 -1,4 -0,8 4,1 10,3 14 7 28 15 ENE 1020,4 8 0,0
13.12.2018 02:00:00 -0,2 -1,5 -0,8 4,2 10,3 14 8 24 13 E 1020,7 7 0,0
13.12.2018 01:00:00 0,3 -0,8 -0,4 4,3 10,3 15 8 25 14 E 1021,1 6 0,0
13.12.2018 00:00:00 0,3 -0,6 -0,3 4,4 10,3 16 9 23 12 E 1021,5 4,0 0,0
12.12.2018 23:00:00 0,4 -0,5 -0,1 4,5 10,3 14 8 22 12 ENE 1022,0 3,0 0,0
12.12.2018 22:00:00 0,6 -0,3 -0,3 4,6 10,3 13 7 22 12 ENE 1022,5 3,5 0,0
12.12.2018 21:00:00 0,6 -0,4 -0,1 4,7 10,3 16 8 25 14 E 1022,7 4,1 0,0
12.12.2018 20:00:00 1,6 0,3 0,9 4,8 10,4 16 8 27 15 E 1022,9 4,6 0,0
12.12.2018 19:00:00 2,9 0,6 1,9 4,9 10,4 15 8 19 10 ENE 1022,9 11 0,0
12.12.2018 18:00:00 3,3 0,5 2,2 5,0 10,4 13 7 19 10 ENE 1023,3 16 0,0
12.12.2018 17:00:00 3,9 0,9 2,5 5,0 10,4 6 4 16 8 NE 1023,6 15 0,0
12.12.2018 16:00:00 5,0 1,3 5,8 4,9 10,4 8 5 14 8 ENE 1023,4 15 0,0
12.12.2018 15:00:00 5,6 1,7 8,0 4,8 10,4 11 6 17 9 E 1023,8 10 0,0
12.12.2018 14:00:00 5,2 1,9 7,0 4,6 10,4 13 7 18 10 ENE 1024,3 10 0,0
12.12.2018 13:00:00 4,0 1,0 5,6 4,5 10,4 9 5 13 7 E 1024,7 9 0,0
12.12.2018 12:00:00 2,2 0,9 2,6 4,5 10,4 3 2 8 4 SSE 1025,4 8 0,2
12.12.2018 11:00:00 0,9 0,6 -0,7 4,5 10,4 4 2 9 5 E 1025,8 3,7 0,0
12.12.2018 10:00:00 -1,1 -1,4 -4,9 4,6 10,4 3 2 10 5 E 1025,9 1,4 0,0
12.12.2018 09:00:00 -1,6 -2,0 -4,6 4,8 10,5 2 1 8 4 S 1025,5 0,3 0,0
12.12.2018 08:00:00 -1,2 -1,8 -4,7 4,9 10,5 4 2 7 4 E 1025,3 0,7 0,0
12.12.2018 07:00:00 -0,6 -1,0 -3,0 5,0 10,5 3 2 7 4 NE 1025,1 0,8 0,0
12.12.2018 06:00:00 -0,7 -1,3 -3,8 5,2 10,5 5 3 9 5 ENE 1025,0 0,2 0,0
12.12.2018 05:00:00 -0,1 -0,5 -3,5 5,4 10,5 5 3 6 4 NE 1025,2 0,9 0,0
12.12.2018 04:00:00 0,3 -0,1 -2,8 5,6 10,5 3 1 5 3 E 1025,3 0,3 0,0
12.12.2018 03:00:00 1,2 0,5 -0,6 5,7 10,5 4 2 6 3 SSW 1025,4 3,7 0,0
12.12.2018 02:00:00 1,8 0,9 1,0 5,7 10,5 4 2 6 3 E 1025,1 6 0,0
12.12.2018 01:00:00 2,2 1,3 2,0 5,8 10,5 4 2 9 5 ESE 1025,3 6 0,0
12.12.2018 00:00:00 2,3 1,4 2,2 5,7 10,5 5 3 9 5 SE 1025,4 8 0,0
11.12.2018 23:00:00 2,9 2,2 2,6 5,7 10,5 5 3 9 5 SE 1025,5 5 0,0
11.12.2018 22:00:00 2,9 2,2 1,0 5,8 10,6 5 3 8 4 SSE 1025,6 5 0,0
11.12.2018 21:00:00 3,0 2,1 0,6 5,9 10,6 4 2 6 4 SE 1025,4 0,4 0,0
11.12.2018 20:00:00 3,6 2,6 2,1 5,9 10,5 2 1 7 4 E 1025,6 7 0,0
11.12.2018 19:00:00 4,0 3,0 1,6 6,0 10,6 2 1 5 3 ESE 1025,5 6 0,0
11.12.2018 18:00:00 4,9 3,1 3,4 6,0 10,6 4 2 7 4 S 1025,4 8 0,0
11.12.2018 17:00:00 5,9 3,9 5,5 5,9 10,6 6 3 10 6 SSE 1025,2 10 0,0
11.12.2018 16:00:00 7,9 1,3 9,1 5,7 10,6 5 3 8 5 SSE 1025,2 60 0,0
11.12.2018 15:00:00 9,2 1,6 11,0 5,6 10,6 3 2 9 5 SE 1025,3 59 0,0
11.12.2018 14:00:00 7,8 2,3 9,1 5,3 10,6 7 4 11 6 SW 1025,5 20 0,0
11.12.2018 13:00:00 7,3 3,3 8,2 5,1 10,6 4 2 8 4 SSW 1026,0 15 0,0
11.12.2018 12:00:00 5,3 3,6 6,0 5,0 10,6 4 2 9 5 SSW 1026,7 9 0,2
11.12.2018 11:00:00 3,2 3,2 0,4 5,0 10,6 4 2 9 5 WSW 1026,8 1,2 0,0
11.12.2018 10:00:00 1,6 1,5 -3,6 5,1 10,6 5 3 8 4 SW 1026,9 0,9 0,0
11.12.2018 09:00:00 -1,1 -1,4 -4,7 5,2 10,6 0 0 4 2 N 1026,6 0,1 0,0
11.12.2018 08:00:00 -1,1 -1,4 -4,6 5,3 10,6 4 2 5 3 SW 1026,3 0,1 0,0
11.12.2018 07:00:00 -0,4 -0,7 -4,4 5,5 10,6 0 0 10 6 N 1026,4 0,2 0,0
11.12.2018 06:00:00 -0,5 -0,9 -4,1 5,6 10,7 7 4 11 6 WSW 1026,4 1,7 0,0
11.12.2018 05:00:00 0,6 0,5 -3,8 5,8 10,6 5 3 11 6 W 1026,7 0,3 0,0
11.12.2018 04:00:00 0,5 0,2 -3,7 6,0 10,6 5 3 14 8 WNW 1026,9 2,2 0,0
11.12.2018 03:00:00 0,6 0,3 -3,1 6,2 10,7 7 4 11 6 W 1027,2 0,9 0,0
11.12.2018 02:00:00 1,2 0,9 -2,9 6,4 10,7 9 5 12 7 W 1027,3 0,8 0,0
11.12.2018 01:00:00 0,7 0,0 -2,5 6,6 10,7 9 5 11 6 W 1027,4 1,0 0,0
11.12.2018 00:00:00 1,9 1,5 -2,3 6,8 10,7 5 3 10 5 WSW 1027,4 0,6 0,0
10.12.2018 23:00:00 1,9 0,9 -1,7 7,1 10,7 6 3 14 8 W 1027,3 7 0,0
10.12.2018 22:00:00 3,5 2,0 0,6 7,2 10,7 11 6 13 7 W 1027,2 17 0,0
10.12.2018 21:00:00 4,0 2,2 0,8 7,5 10,7 6 3 16 9 WNW 1027,0 16 0,0
10.12.2018 20:00:00 4,3 3,3 1,5 7,7 10,7 8 4 13 7 W 1026,9 10 0,0
10.12.2018 19:00:00 5,5 4,5 3,4 7,8 10,7 11 6 16 9 W 1027,0 13 0,0
10.12.2018 18:00:00 6,8 5,7 5,6 7,8 10,7 10 6 29 15 W 1026,6 20 1,4
10.12.2018 17:00:00 7,3 5,6 6,6 7,8 10,7 14 7 22 12 WNW 1026,7 11 0,2
10.12.2018 16:00:00 7,7 5,7 7,2 7,8 10,7 13 7 24 13 W 1026,3 43 0,0
10.12.2018 15:00:00 8,0 5,6 8,0 7,6 10,7 20 11 33 18 WNW 1026,0 31 0,0
10.12.2018 14:00:00 8,6 5,5 9,0 7,4 10,7 21 11 38 21 WNW 1025,8 39 0,0
10.12.2018 13:00:00 8,5 5,1 9,1 7,2 10,7 24 13 36 20 WNW 1026,0 22 0,0
10.12.2018 12:00:00 7,8 5,1 8,2 7,0 10,7 23 12 32 18 W 1026,1 15 0,0
10.12.2018 11:00:00 7,0 5,0 5,7 6,9 10,7 21 11 31 17 W 1026,0 7 0,0
10.12.2018 10:00:00 5,7 4,3 4,9 6,9 10,7 16 8 28 15 W 1025,6 42 0,0
10.12.2018 09:00:00 4,9 3,9 3,7 7,0 10,7 16 9 24 13 W 1024,9 35 0,0
10.12.2018 08:00:00 5,1 3,9 3,9 7,1 10,7 17 9 31 17 W 1024,3 45 0,0
10.12.2018 07:00:00 5,5 4,1 4,1 7,1 10,7 20 11 30 16 W 1023,8 50 0,0
10.12.2018 06:00:00 5,6 3,9 4,1 7,2 10,7 18 10 27 15 W 1023,4 54 0,0
10.12.2018 05:00:00 4,9 3,6 3,3 7,3 10,7 17 9 22 12 W 1023,3 50 0,0
10.12.2018 04:00:00 4,8 2,8 3,4 7,5 10,7 18 10 27 14 W 1022,7 51 0,0
10.12.2018 03:00:00 4,5 2,7 3,1 7,6 10,7 15 8 20 11 WNW 1022,3 55 0,0
10.12.2018 02:00:00 4,8 2,8 3,1 7,8 10,7 12 6 20 11 W 1021,8 54 0,0
10.12.2018 01:00:00 5,4 2,9 4,1 7,9 10,7 15 8 30 16 W 1021,3 55 0,0
10.12.2018 00:00:00 5,8 3,5 4,2 8,1 10,7 17 9 26 14 W 1020,6 49 0,0
09.12.2018 23:00:00 6,6 4,8 5,4 8,1 10,7 16 9 36 19 W 1019,6 44 0,2
09.12.2018 22:00:00 7,4 5,5 4,9 8,2 10,7 27 15 42 23 WNW 1019,0 12 0,2
09.12.2018 21:00:00 6,0 4,0 4,8 8,4 10,7 14 7 24 13 W 1018,1 54 0,0
09.12.2018 20:00:00 6,4 3,7 5,4 8,6 10,7 16 9 28 15 W 1017,0 57 0,0
09.12.2018 19:00:00 6,9 4,2 5,9 8,8 10,7 19 11 31 17 W 1016,0 60 0,0
09.12.2018 18:00:00 7,4 4,2 6,4 9,0 10,7 23 12 41 22 W 1014,5 59 0,0
09.12.2018 17:00:00 8,1 4,5 7,1 9,2 10,7 26 14 50 27 WNW 1012,7 59 0,0
09.12.2018 16:00:00 9,1 5,5 8,1 9,3 10,7 32 17 59 32 NW 1011,0 14 0,0
09.12.2018 15:00:00 9,1 6,7 8,4 9,2 10,7 29 16 61 33 WNW 1009,0 48 0,4
09.12.2018 14:00:00 9,5 7,8 8,2 9,1 10,7 29 16 56 30 WNW 1007,2 18 1,2
09.12.2018 13:00:00 10,1 7,0 8,9 8,9 10,7 34 19 56 30 WNW 1006,0 16 0,0
09.12.2018 12:00:00 8,1 6,4 7,2 8,9 10,7 26 14 61 33 W 1004,9 28 2,4
09.12.2018 11:00:00 11,0 6,7 9,2 8,8 10,7 41 22 67 36 W 1003,6 17 0,0
09.12.2018 10:00:00 9,8 6,3 8,5 8,7 10,7 36 20 62 34 W 1002,9 20 0,0
09.12.2018 09:00:00 10,0 5,8 8,1 8,7 10,7 31 17 54 29 W 1002,4 35 0,0
09.12.2018 08:00:00 9,8 5,6 9,2 8,7 10,7 31 17 58 32 WSW 1002,0 35 0,0
09.12.2018 07:00:00 9,6 5,4 8,6 8,8 10,7 32 18 60 33 W 1001,8 30 0,0
09.12.2018 06:00:00 9,7 5,3 9,0 8,8 10,7 40 22 62 33 W 1001,3 20 0,0
09.12.2018 05:00:00 9,6 5,0 8,7 8,9 10,7 41 22 65 35 W 1001,3 35 0,0
09.12.2018 04:00:00 10,1 4,9 9,1 9,0 10,7 43 23 64 35 W 1001,2 37 0,0
09.12.2018 03:00:00 10,2 5,6 9,4 9,0 10,7 38 21 59 32 W 1000,8 20 0,0
09.12.2018 02:00:00 10,0 5,4 9,2 9,1 10,7 37 20 61 33 WSW 1000,5 33 0,0
09.12.2018 01:00:00 10,2 6,3 9,4 9,2 10,7 36 19 59 32 WSW 1000,2 19 0,0
09.12.2018 00:00:00 10,3 7,0 8,4 9,3 10,7 37 20 55 30 W 1000,3 12 0,0
08.12.2018 23:00:00 9,8 6,7 7,8 9,4 10,7 35 19 84 45 W 999,6 17 1,2
08.12.2018 22:00:00 10,9 7,8 9,6 9,4 10,7 40 21 67 36 WSW 999,8 15 0,0
08.12.2018 21:00:00 10,9 8,1 9,6 9,4 10,7 42 23 67 36 WSW 999,8 20 0,8
08.12.2018 20:00:00 10,9 10,0 9,7 9,3 10,7 31 17 72 39 WSW 1000,2 1,4 4,0
08.12.2018 19:00:00 10,2 9,3 9,3 9,2 10,7 38 20 64 35 SSW 1000,5 9 0,4
08.12.2018 18:00:00 9,8 8,9 9,0 9,1 10,7 36 20 60 33 SSW 1002,3 12 0,2
08.12.2018 17:00:00 9,5 8,6 9,0 9,1 10,7 34 19 54 29 SSW 1004,0 15 0,8
08.12.2018 16:00:00 9,9 9,0 9,4 9,0 10,7 29 16 45 24 SSW 1005,4 8 0,8
08.12.2018 15:00:00 11,2 7,3 11,0 8,9 10,7 31 17 61 33 SW 1006,5 33 0,0
08.12.2018 14:00:00 11,5 6,4 11,1 8,8 10,7 40 22 64 35 WSW 1007,3 20 0,0
08.12.2018 13:00:00 11,3 6,2 10,9 8,6 10,7 34 18 61 33 WSW 1007,7 19 0,0
08.12.2018 12:00:00 11,4 6,1 9,5 8,5 10,7 40 22 64 35 WSW 1007,7 9 0,0
08.12.2018 11:00:00 10,8 6,0 10,4 8,4 10,7 38 21 56 31 WSW 1008,0 11 0,0
08.12.2018 10:00:00 9,9 5,5 8,6 8,4 10,7 35 19 56 30 WSW 1007,7 10 0,0
08.12.2018 09:00:00 9,5 4,9 8,0 8,4 10,7 29 16 52 28 WSW 1007,4 35 0,0
08.12.2018 08:00:00 8,6 5,3 7,2 8,4 10,7 27 15 41 22 SW 1007,4 30 0,0
08.12.2018 07:00:00 8,0 6,1 6,6 8,4 10,7 26 14 41 22 SW 1007,2 29 0,0
08.12.2018 06:00:00 7,2 6,0 6,4 8,4 10,7 25 14 50 27 SW 1007,2 36 1,2
08.12.2018 05:00:00 7,1 5,4 6,1 8,5 10,7 31 17 54 29 SSW 1007,3 49 0,6
08.12.2018 04:00:00 7,5 5,6 6,5 8,5 10,7 29 16 49 27 SW 1007,7 49 0,0
08.12.2018 03:00:00 7,2 5,5 6,4 8,5 10,7 19 10 39 21 SSW 1008,2 30 0,2
08.12.2018 02:00:00 7,0 5,1 6,1 8,5 10,7 26 14 44 24 SSW 1008,5 35 0,0
08.12.2018 01:00:00 7,0 4,5 6,2 8,6 10,7 18 10 34 18 SSW 1008,6 39 0,0
08.12.2018 00:00:00 7,2 3,8 5,4 8,8 10,7 24 13 37 20 SW 1008,6 38 0,0
07.12.2018 23:00:00 7,6 4,0 5,0 8,9 10,7 29 16 48 26 SW 1008,1 44 0,6
07.12.2018 22:00:00 6,3 3,5 4,7 9,2 10,7 17 9 42 23 SSW 1007,6 41 0,0
07.12.2018 21:00:00 7,1 3,9 5,4 9,4 10,7 37 20 54 29 W 1007,7 6 0,2
07.12.2018 20:00:00 7,9 3,4 7,0 9,6 10,7 26 14 56 30 W 1006,5 50 0,0
07.12.2018 19:00:00 8,1 4,1 7,0 9,9 10,7 28 15 40 22 WSW 1005,3 42 0,0
07.12.2018 18:00:00 8,1 4,5 7,0 10,1 10,6 21 12 48 26 W 1004,1 51 0,0
07.12.2018 17:00:00 8,2 4,4 7,0 10,4 10,7 34 18 67 36 W 1002,4 55 0,2
07.12.2018 16:00:00 9,8 6,5 8,6 10,5 10,7 31 17 59 32 WSW 1001,5 52 0,0
07.12.2018 15:00:00 10,5 8,4 9,4 10,5 10,6 40 22 70 38 WSW 1001,3 4,8 2,8
07.12.2018 14:00:00 11,0 9,6 10,4 10,5 10,6 41 22 62 33 S 1000,7 14 1,6
07.12.2018 13:00:00 11,4 9,6 10,5 10,5 10,6 38 20 63 34 S 1002,4 7 0,4
07.12.2018 12:00:00 11,7 10,1 11,1 10,5 10,7 37 20 61 33 S 1004,3 10 0,0
07.12.2018 11:00:00 12,0 9,9 11,5 10,4 10,6 32 18 53 29 S 1006,2 47 0,0
07.12.2018 10:00:00 11,9 10,0 11,5 10,4 10,6 31 17 53 28 SSW 1007,3 59 0,0

tt = temperature
td = dewpoint
tt 5cm = temperature 5cm
tt -20cm = temperature -20cm
tt -100cm = temperature -100cm
ff = wind speed
fx = gusts
dd = wind direction
ppp = reduced air pressure
vv = visibility
rr = precipitation

Next stations